This demonstration page uses our WeatherBlox Daily Observations layout. Learn more.

Left ArrowRight Arrow

34.02893, -84.19858

Hourly Observations for August 3, 2022

Temp ( °F °C ) Dew Point ( °F °C ) Humidity (%) Winds ( mph kmh ) Pressure ( in mb ) Visibility ( mi km ) Precip ( " mm )
12:53 am 00:53 Clear 78 25.6 73 22.8 85 85 WSW 5 7 30.01 1016 10 16 0.00 0.00
1:53 am 01:53 Clear 76 24.4 73 22.8 91 91 NNW 5 7 29.97 1015 10 16 0.00 0.00
2:53 am 02:53 Clear 75 23.9 71 21.7 88 88 Calm 29.96 1014 10 16 0.00 0.00
3:53 am 03:53 Clear 75 23.9 72 22.2 90 90 Calm 29.95 1014 10 16 0.00 0.00
4:53 am 04:53 Clear 74 23.3 72 22.2 94 94 Calm 29.96 1015 10 16 0.00 0.00
5:53 am 05:53 Clear 73 22.8 72 22.2 96 96 SW 5 7 29.98 1015 10 16 0.00 0.00
6:53 am 06:53 Cloudy 74 23.3 72 22.2 94 94 W 3 6 30.00 1016 10 16 0.00 0.00
7:53 am 07:53 Sunny 75 23.9 72 22.2 90 90 W 5 7 30.01 1016 10 16 0.00 0.00
8:53 am 08:53 Partly Cloudy 76 24.4 72 22.2 88 88 W 3 6 30.02 1017 10 16 0.00 0.00
9:53 am 09:53 Sunny 79 26.1 73 22.8 82 82 Calm 30.03 1017 10 16 0.00 0.00
10:53 am 10:53 Sunny 83 28.3 74 23.3 74 74 N 3 6 30.03 1017 10 16 0.00 0.00
11:53 am 11:53 Mostly Cloudy 82 27.8 72 22.2 72 72 Calm 30.03 1017 10 16 0.00 0.00
12:53 pm 12:53 Sunny 82 27.8 75 23.9 79 79 S 5 7 30.03 1017 10 16 0.00 0.00
1:53 pm 13:53 Sunny 84 28.9 74 23.3 72 72 VRB 3 6 30.02 1017 10 16 0.00 0.00
2:53 pm 14:53 Mostly Sunny 88 31.1 72 22.2 59 59 VRB 5 7 29.99 1016 10 16 0.00 0.00
3:53 pm 15:53 Mostly Sunny 87 30.6 70 21.1 57 57 VRB 6 9 29.96 1015 10 16 0.00 0.00
4:53 pm 16:53 Mostly Sunny 89 31.7 70 21.1 53 53 S 3 6 29.96 1015 10 16 0.00 0.00
5:53 pm 17:53 Sunny 86 30 69 20.6 57 57 SSE 6 9 29.95 1014 10 16 0.00 0.00
6:53 pm 18:53 Sunny 84 28.9 72 22.2 67 67 Calm 29.97 1015 10 16 0.00 0.00
7:35 pm 19:35 Sunny with Nearby Thunderstorms 83 28.3 72 22.2 70 70 S 3 6 29.98 1015 10 16 0.00 0.00
7:50 pm 19:50 Sunny 82 28 72 22 70 70 S 5 7 29.98 1015 10 16 0.00 0.00
7:53 pm 19:53 Sunny 82 27.8 71 21.7 69 69 S 6 9 29.98 1015 10 16 0.00 0.00
8:30 pm 20:30 Mostly Cloudy with Nearby Thunderstorms 81 27.2 70 21.1 69 69 undefined N/A 30.00 1016 10 16 0.00 0.00
8:45 pm 20:45 Cloudy 80 26.7 68 20 67 67 VRB 3 6 30.02 1017 10 16 0.00 0.00
8:53 pm 20:53 Cloudy 80 26.7 68 20 67 67 VRB 5 7 30.02 1017 10 16 0.00 0.00
9:53 pm 21:53 Cloudy with Light Rain 74 23.3 69 20.6 85 85 VRB 3 6 30.07 1018 9 14 0.00 0.00
10:53 pm 22:53 Clear 73 22.8 68 20 84 84 Calm 30.06 1018 10 16 0.01 0.25
11:53 pm 23:53 Clear 73 22.8 68 20 84 84 Calm 30.06 1018 10 16 0.00 0.00

Powered by AerisWeather